星链-5517 (STARLINK-5517 )

导读

STARLINK-5517是美国太空探索技术公司(SpaceX)于2023年7月7日发射的星链(Starlink)卫星,属于SpaceX第二代低轨互联网星座部署序列。 它运行在近地轨道,倾角约53度,为星链全球卫星互联网网络提供宽带接入服务,扩展了星链在盲区通信、移动场景、应急救援等领域的覆盖与服务能力,截至当前仍在轨工作。

Basic Information
目录编号:
57249
目录名称:
STARLINK-5517
国际标识:
2023-094AH
轨道中心:
EARTH
卫星名称:
星链-5517
卫星全名:
星链-5517 (STARLINK-5517 )
卫星状态:
在轨 (已飞行1155 天)
发射日期:
2023-07-07 UTC
国别 :
美国 (US)
星等 :
--
Orbit Information
数据来源 国际轨道数据
星历时间: 2026-09-04T08:04:29+0800
11小时前
查看轨道信息
半长轴: 6861.372km
偏心率: 0.0001286
轨道倾角: 43.005°
近地点辐角 49.478°
升交点赤经 92.558°
平近点角 310.618°
近地点: 482.352km
远地点: 484.118km
周期: 94.271分钟
每日圈数: 15.27518
Detailed Information
固有亮度:
5
最大亮度:
2.4
卫星平台:
Starlink v1.5
覆盖范围:
全球
运营商:
太空探索技术公司
运营商所在国:
美国
制造商(研发单位):
太空探索技术公司
制造商所在国:
美国
使用方式:
暂无
Satellite Introduction
星链(Starlink)计划是由太空探索技术公司(SpaceX)提出的一个巨型低轨卫星互联网星座项目,计划在2019年至2024年间在太空搭建由约1.2万颗卫星组成的“星链”网络,其中1584颗将部署在地球上空550千米处的近地轨道,并从2020年开始工作。该卫星仍在工作。
2D Orbit Map
3D Orbit Map
Orbit Altitude Analysis Chart
Orbit Inclination Analysis Chart
Orbit Comprehensive Analysis Chart
View Comprehensive Chart
Conjunction Data List
Event ID Objects TCA Miss Dist (km) Collision Risk Probability Collision Risk Index (CRI) Action
CDM_260905-220905-724906-433921
2026-09-05T
22:09:37+0000
0.696 km
远距离
5.801339E-5 中风险 0.7
CDM_260905-183405-724906-791921
2026-09-05T
18:34:33+0000
1.499 km
极远距离
5.014276E-6 低风险 0.49
CDM_260905-200805-724906-791921
2026-09-05T
20:08:42+0000
1.994 km
极远距离
2.197406E-6 低风险 0.42
CDM_260905-115705-724906-433921
2026-09-05T
11:57:38+0000
2.098 km
极远距离
1.749565E-6 低风险 0.4
CDM_260904-204705-724906-261921
IRIS-F3 (62619)
2026-09-04T
20:47:32+0000
2.775 km
极远距离
1.369566E-6 低风险 0.38
CDM_260904-222105-724906-261921
IRIS-F3 (62619)
2026-09-04T
22:21:47+0000
2.975 km
极远距离
1.249406E-6 低风险 0.37
CDM_260905-090805-724906-741821
2026-09-05T
09:08:23+0000
2.925 km
极远距离
1.094142E-6 低风险 0.36
CDM_260905-133105-724906-433921
2026-09-05T
13:31:47+0000
2.745 km
极远距离
1.064418E-6 低风险 0.36